Location: Unspecified
(0.0000°N, 0.0000°E)
Time: 13:37:18
(UTC+01:00)

Delta 168 - Visible Passes

Search period start: 24 February 2017 00:00
Search period end: 06 March 2017 00:00
Orbit: 395 x 2066 km, 25.3° (Epoch: 22 February)

Date Brightness Start Highest point End Pass type
(mag) Time Alt. Az. Time Alt. Az. Time Alt. Az.
24 Feb 6.8 03:13:53 26° ENE 03:13:53 26° ENE 03:18:23 10° ENE visible
24 Feb 5.7 05:03:55 49° NW 05:05:25 50° NNW 05:17:18 10° NE visible
25 Feb 7.1 03:04:17 21° ENE 03:04:17 21° ENE 03:07:25 10° ENE visible
25 Feb 5.8 04:54:18 47° NNW 04:54:30 47° NNW 05:06:23 10° NE visible
25 Feb 6.6 06:45:49 10° WNW 06:55:18 24° NNW 07:03:53 10° NNE visible
26 Feb 7.3 02:54:34 16° ENE 02:54:34 16° ENE 02:56:23 10° ENE visible
26 Feb 5.9 04:44:35 43° NNW 04:44:35 43° NNW 04:55:25 10° NE visible
26 Feb 6.6 06:35:18 10° WNW 06:44:37 23° NNW 06:53:14 10° NNE visible
27 Feb 7.5 02:44:46 12° ENE 02:44:46 12° ENE 02:45:17 10° ENE visible
27 Feb 6.1 04:34:46 38° N 04:34:46 38° N 04:44:24 10° NE visible
27 Feb 6.7 06:24:50 10° WNW 06:33:56 22° NNW 06:42:33 10° NNE visible
28 Feb 6.3 04:24:54 33° N 04:24:54 33° N 04:33:19 10° NE visible
28 Feb 6.8 06:14:54 11° NW 06:23:16 22° NNW 06:31:51 10° NNE visible
01 Mar 6.5 04:14:56 29° N 04:14:56 29° N 04:22:12 10° NE visible
01 Mar 6.8 06:04:56 12° NW 06:12:37 21° N 06:21:08 10° NE visible
02 Mar 6.7 04:04:55 25° NNE 04:04:55 25° NNE 04:11:01 10° NE visible
02 Mar 6.8 05:54:55 13° NW 06:01:57 20° N 06:10:24 10° NE visible
03 Mar 6.8 03:54:52 21° NNE 03:54:52 21° NNE 03:59:48 10° NE visible
03 Mar 6.8 05:44:52 13° NW 05:51:19 20° N 05:59:39 10° NE visible
04 Mar 7.0 03:44:47 18° NNE 03:44:47 18° NNE 03:48:33 10° NE visible
04 Mar 6.8 05:34:46 14° NW 05:40:41 19° N 05:48:55 10° NE visible
05 Mar 7.1 03:34:40 15° NNE 03:34:40 15° NNE 03:37:16 10° NE visible
05 Mar 6.8 05:24:40 14° NNW 05:30:04 19° N 05:38:09 10° NE visible
